Regional Weather Roundup
Issued by NWS

Home | Current Version | Previous Version | Text Only | Print | Product List | Glossary On
Versions: 1 2 3 4 5 6 7 8 9 10 11 12 13 14 15 16 17 18 19 20 21 22 23 24 25 26 27 28 29 30 31 32 33 34 35 36 37 38 39 40 41 42 43 44 45 46 47 48 49 50
000
ASUS43 KTOP 200059
RWRKS

WEATHER ROUNDUP FOR KANSAS
NATIONAL WEATHER SERVICE GOODLAND KS
700 PM CST SUN FEB 19 2017

NOTE:  "FAIR" INDICATES FEW OR NO CLOUDS BELOW 12,000 FEET WITH NO
SIGNIFICANT WEATHER AND/OR OBSTRUCTIONS TO VISIBILITY.

KSZ001>006-013>018-027>032-041>047-200200-
NORTHWEST KANSAS

CITY           SKY/WX    TMP DP  RH WIND       PRES   REMARKS
GOODLAND       CLOUDY    63  31  30 SW17G26   29.69R
HAYS           PTCLDY    57  53  86 S12       29.77R
HILL CITY      CLOUDY    62  52  69 SE12G23   29.72R
RUSSELL        PTCLDY    57  52  83 SE18      29.75F
$$

KSZ061>065-074>080-084>089-200200-
SOUTHWEST KANSAS

CITY           SKY/WX    TMP DP  RH WIND       PRES   REMARKS
DODGE CITY     CLOUDY    59  52  77 SE13      29.74F
ELKHART          N/A     56  33  42 S18         N/A
GARDEN CITY    CLOUDY    64  36  35 SW17G24   29.74R
GREAT BEND     PTCLDY    58  53  84 SE15      29.79R
LIBERAL        CLEAR     61  34  36 SW21G29   29.79R
$$

KSZ066>073-081>083-090>101-200200-
SOUTHEAST KANSAS

CITY           SKY/WX    TMP DP  RH WIND       PRES   REMARKS
CHANUTE        CLOUDY    66  55  67 S9        29.90S
COFFEYVILLE    PTCLDY    66  57  72 SE10      29.89F
HUTCHINSON     CLEAR     57  54  89 SE8       29.82F
MEDICINE LODGE   N/A     61  55  81 SE9       29.79S
NEWTON         CLOUDY    58  53  84 E3        29.86S
PARSONS        CLOUDY    67  56  67 SE6       29.90F
WICHITA INTL   CLOUDY    62  55  77 E3        29.84R
WICHITA JABRA  CLOUDY    63  55  75 SE10      29.84S
WINFIELD       CLOUDY    64  57  78 S15       29.85S
$$

KSZ007>012-019>026-033>040-048>060-102>105-200200-
NORTHEAST KANSAS

CITY           SKY/WX    TMP DP  RH WIND       PRES   REMARKS
CONCORDIA      CLEAR     59  52  77 S17       29.81R
EMPORIA        PTCLDY    58  53  84 SE9       29.87R
LAWRENCE         N/A     60  53  77 MISG      29.88R
MANHATTAN      CLOUDY    60  53  77 S9        29.86R
OLATHE IND     PTCLDY    62  52  69 S6        29.90R
OLATHE EXE     PTCLDY    64  54  69 S8        29.90R
SALINA         PTCLDY    61  53  75 SE10      29.82F
TOPEKA BILLARD MOCLDY    58  51  78 E5        29.86S
TOPEKA FORBES  CLOUDY    59  52  77 SE6       29.87R
$$




USA.gov is the U.S. government's official web portal to all federal, state and local government web resources and services.